Location: Denia
(38.8500°N, 0.1170°E)
Time: 20:57:18
(UTC+01:00)

LightSail 2 - Visible Passes

Search period start: 22 January 2020 00:00
Search period end: 01 February 2020 00:00
Orbit: 704 x 720 km, 24.0° (Epoch: 22 January)

Date Brightness Start Highest point End Pass type
(mag) Time Alt. Az. Time Alt. Az. Time Alt. Az.
22 Jan 7.4 19:25:25 10° SSW 19:28:17 15° S 19:31:09 10° SE visible
22 Jan 7.9 21:10:44 10° SW 21:11:09 11° SSW 21:11:09 11° SSW visible
23 Jan 7.4 20:12:06 10° SW 20:14:44 14° S 20:16:26 12° SSE visible
24 Jan 7.5 19:13:41 10° SW 19:16:31 15° S 19:19:21 10° SSE visible
25 Jan 7.6 20:01:08 10° SSW 20:02:56 12° S 20:04:45 10° S visible
26 Jan 7.6 19:02:18 10° SW 19:04:43 13° S 19:07:07 10° SSE visible
28 Jan 7.9 18:51:45 10° SSW 18:52:52 11° SSW 18:53:59 10° S visible
